GFSGBSN_sfc_temp_231.txt.gz
Temp
66 66 66 66 66 66 66 65 64 64 64 65 65 65 65 65 65 66 66 67 68 69 69 69 69 69 73 65 66 78 76 74 78 76 72 71 68 66 62 65 64 62 61 61 61 61 58
66 68 66 65 66 66 65 65 64 64 64 64 65 65 65 65 65 66 67 67 68 68 68 69 69 71 70 61 76 75 71 75 74 74 70 71 70 69 64 62 62 61 61 59 60 58 57
66 67 65 65 65 65 65 65 64 64 64 64 65 65 65 64 65 65 66 67 67 67 67 69 70 74 69 64 74 73 71 71 71 73 69 68 71 69 67 62 63 62 60 59 55 56 55
66 66 65 65 65 65 65 64 64 63 63 64 64 64 64 64 64 65 66 67 67 67 69 69 70 71 64 73 73 72 71 74 73 72 70 68 69 64 62 63 60 56 55 51 52 54 56
66 65 65 65 65 65 65 64 63 63 63 63 64 63 63 64 64 65 67 67 68 69 71 71 72 69 62 75 69 70 68 67 69 72 69 72 65 58 59 56 53 50 49 48 50 51 51
66 65 65 64 64 64 65 64 63 63 62 63 63 62 62 63 64 65 67 69 71 71 71 74 71 66 68 63 66 68 67 67 66 67 66 60 55 52 54 52 45 47 47 47 46 47 46
65 64 64 64 64 64 64 63 63 62 62 62 62 62 62 63 63 64 69 70 66 64 63 60 59 60 63 67 68 67 64 65 65 59 52 53 50 44 46 47 49 48 45 45 47 49 43
65 64 64 64 64 64 64 63 63 62 62 62 62 62 62 63 63 63 65 62 59 64 57 62 62 63 65 62 59 64 65 61 56 49 52 50 44 49 50 49 48 47 46 45 47 48 46
64 64 64 64 64 64 63 63 62 62 62 62 62 61 62 63 63 62 59 59 60 61 57 60 62 61 62 63 54 56 58 57 52 48 47 45 48 52 50 45 45 45 44 43 41 44 42
64 64 63 63 63 63 62 62 62 61 61 61 61 61 63 63 66 58 58 60 60 60 51 53 59 63 63 60 54 60 58 56 52 48 47 46 50 48 46 44 44 39 48 43 40 38 36
64 64 63 63 63 63 62 61 61 61 61 60 61 61 61 66 60 59 60 59 59 63 42 56 57 67 61 55 52 58 58 57 48 47 50 44 45 44 44 44 46 42 46 40 40 37 37
64 64 63 62 62 62 61 61 61 61 61 61 61 61 62 61 58 55 58 58 62 53 40 51 55 53 53 51 50 51 50 54 51 48 48 45 51 48 46 47 47 47 42 40 37 37 32
63 63 62 62 62 62 61 61 61 61 61 60 60 61 61 60 57 56 57 60 51 42 51 48 48 50 47 45 47 44 42 40 36 42 35 42 43 46 46 43 45 42 37 34 35 33 33
63 62 62 62 62 61 61 61 61 61 61 60 59 59 60 58 55 57 59 57 43 44 43 50 49 48 44 45 43 42 40 36 39 37 34 34 38 40 44 40 38 37 35 32 24 27 29
63 62 62 61 61 61 61 61 61 60 60 59 59 56 55 57 57 57 58 41 41 42 46 46 48 45 43 45 43 41 35 35 37 37 36 33 36 44 43 42 40 37 32 36 29 27 23
62 62 61 61 61 60 60 61 61 60 60 59 54 53 54 55 54 56 47 40 40 46 47 47 42 42 40 40 41 39 36 39 38 40 40 35 32 39 42 44 42 39 39 30 29 16 17
62 62 61 61 60 60 60 60 61 60 60 59 54 53 57 53 56 51 40 38 44 48 48 45 42 41 39 39 38 36 35 39 40 39 39 36 34 36 38 33 32 34 31 30 28 25 19
62 62 61 61 60 59 60 60 60 59 58 56 50 51 56 55 47 36 37 43 49 45 47 46 45 43 41 39 37 36 36 37 41 40 35 36 32 29 29 35 37 33 29 27 20 19 19
62 62 61 61 60 59 59 60 59 58 57 52 48 47 54 55 39 33 39 42 44 44 42 44 42 43 42 38 36 37 37 42 41 40 35 37 30 28 28 31 34 30 30 28 24 20 16
62 62 61 61 60 59 59 59 59 58 57 50 48 45 47 42 38 39 39 38 40 44 43 43 42 44 41 37 38 34 36 40 41 40 45 40 30 30 28 28 28 26 28 27 24 18 16
62 61 61 61 60 59 59 59 59 58 57 51 42 36 38 35 40 38 38 39 39 39 43 43 40 39 39 31 35 34 36 37 40 41 36 34 28 28 27 28 30 28 27 27 18 24 17
61 61 61 61 60 60 59 59 58 58 56 46 42 37 35 29 37 37 36 36 38 37 38 39 39 37 37 36 35 35 36 35 34 36 32 32 26 28 24 27 28 25 27 27 27 27 25
61 61 60 60 60 60 59 58 57 57 55 44 39 42 43 32 33 35 34 39 40 38 39 38 39 37 35 36 37 35 33 32 33 33 30 29 27 22 22 23 26 22 26 27 27 28 27
61 60 60 60 60 59 58 58 57 56 55 47 43 44 40 29 31 34 39 39 38 38 37 37 39 37 37 39 38 38 36 34 34 30 32 28 23 19 19 22 17 27 32 31 27 29 30
61 60 60 60 60 58 58 58 58 56 54 45 42 45 37 27 35 37 37 36 36 36 35 35 36 36 39 37 29 28 29 31 30 28 27 29 24 11 17 18 23 26 30 28 25 25 30
61 60 60 60 59 58 58 57 56 55 52 42 38 40 42 36 31 39 37 36 34 31 32 35 38 38 38 30 26 22 25 27 28 28 31 29 23 20 12 14 18 26 32 33 30 21 32
60 60 60 59 58 58 57 57 57 55 54 44 38 40 41 31 33 36 33 34 36 32 27 33 34 34 35 24 23 24 25 28 25 25 24 18 13 14 16 12 21 29 32 33 19 24 33
60 60 59 59 58 58 57 57 56 55 53 45 39 41 40 29 33 37 38 35 36 34 29 32 31 30 26 21 24 26 26 27 25 26 26 22 16 14 9 10 17 33 32 25 31 33 33
60 59 59 58 58 57 57 57 57 56 54 49 41 43 46 35 34 39 39 39 38 37 33 29 33 31 33 26 25 26 25 25 24 23 25 22 24 20 21 25 31 33 33 35 35 32 33

GFSGBSN_sfc_temp_234.txt.gz
Temp
67 67 66 66 66 66 66 65 65 64 65 65 66 65 66 65 66 67 67 68 69 70 70 69 69 70 83 81 76 87 78 83 89 86 82 83 82 79 73 74 75 69 68 68 66 64 63
67 67 66 66 66 66 66 65 64 64 64 65 65 65 65 65 66 67 67 68 69 69 68 68 70 73 85 71 85 86 84 86 84 85 81 82 81 83 76 71 72 72 69 67 66 64 62
67 67 66 65 65 65 65 65 64 64 64 64 65 65 65 65 65 66 67 68 69 68 68 69 71 85 81 74 85 86 85 82 82 82 78 78 80 80 77 70 73 71 66 67 64 65 61
67 66 66 65 65 65 65 65 64 63 64 64 65 65 64 64 65 66 67 68 67 68 69 70 70 89 75 83 88 83 84 85 86 84 80 80 81 76 72 72 71 68 68 64 59 63 62
67 66 65 65 65 65 65 64 64 63 63 64 64 64 64 64 65 65 67 68 69 69 71 73 86 85 74 83 79 82 79 77 80 82 82 81 79 71 73 70 68 68 62 60 59 60 60
66 65 65 65 65 65 65 64 64 63 63 63 63 63 63 64 64 65 68 70 71 76 81 84 84 80 78 72 76 78 80 77 76 78 78 75 73 70 67 66 56 56 59 60 56 57 55
66 65 64 64 64 64 64 64 63 63 62 62 63 62 63 64 64 64 77 88 84 80 77 70 69 70 73 77 78 77 75 75 79 75 67 66 64 55 57 58 58 58 56 56 60 55 53
66 65 64 64 64 64 64 63 63 63 62 62 62 62 63 64 63 64 83 79 71 78 68 72 72 73 73 74 70 73 77 73 71 64 66 67 55 58 58 58 57 58 56 57 57 54 55
65 64 64 64 64 64 63 63 62 62 62 62 62 62 63 64 64 75 77 71 72 75 74 69 70 70 68 73 63 65 68 68 65 62 63 60 55 58 57 56 55 55 53 51 49 53 50
65 64 64 64 64 64 63 62 62 62 62 62 62 62 64 64 73 76 74 72 73 73 73 64 68 70 71 68 62 68 67 64 63 58 58 56 59 56 58 53 53 51 57 52 48 47 47
64 64 64 63 63 63 62 62 62 61 61 61 61 62 61 65 77 77 71 73 74 76 59 65 66 75 71 64 60 65 68 69 59 57 58 51 53 53 53 49 53 51 54 49 47 48 46
64 64 64 63 62 62 62 61 61 61 61 61 62 62 63 74 76 68 71 72 75 69 53 60 64 61 65 62 61 63 62 66 60 59 59 54 58 54 52 54 52 56 56 49 47 49 44
64 64 63 63 62 62 62 61 61 62 62 61 61 61 67 71 71 70 72 76 69 60 60 57 57 59 59 56 58 56 53 51 50 52 51 54 50 53 53 53 55 53 52 46 45 44 39
63 63 62 62 62 62 61 61 61 61 62 60 60 63 64 67 70 70 76 75 59 54 55 58 57 58 56 55 54 54 53 52 52 49 51 48 49 48 53 46 44 45 47 40 28 35 37
63 62 62 62 62 61 61 61 61 61 61 60 60 75 73 72 69 72 77 65 57 56 55 56 58 58 55 54 55 54 48 47 46 48 47 47 44 49 49 51 49 46 41 43 37 39 34
62 62 62 62 62 61 61 61 61 61 61 60 75 74 70 69 70 77 72 51 53 54 55 56 55 53 54 53 55 54 50 46 45 47 49 45 44 46 46 50 49 46 47 38 41 25 25
62 62 62 62 61 60 60 61 61 60 60 59 75 73 72 70 74 73 60 53 53 55 55 56 54 53 51 51 51 49 45 44 46 47 49 47 45 43 47 40 39 43 40 40 38 36 27
62 62 62 62 61 60 60 61 60 60 59 66 71 69 71 73 68 59 57 55 52 54 56 55 55 53 51 49 49 48 46 45 47 47 44 45 45 40 36 42 46 44 37 37 32 28 32
62 62 62 61 60 60 60 60 60 58 58 73 68 67 71 69 57 52 51 50 52 53 51 53 51 52 52 48 46 46 45 46 47 46 44 46 44 41 35 38 42 37 36 35 33 31 25
62 62 62 61 60 60 59 60 59 59 58 69 68 61 66 62 57 59 54 51 49 52 51 52 51 53 50 47 48 43 44 45 47 47 45 47 43 41 38 36 37 32 32 33 33 29 26
62 62 62 62 60 60 60 60 59 59 58 70 60 51 52 52 55 57 55 52 49 49 52 53 50 49 50 41 46 44 44 44 46 45 45 46 40 39 36 35 36 35 32 32 26 33 24
62 61 62 62 61 60 60 59 59 58 57 65 56 51 51 45 49 52 47 50 49 45 48 49 51 46 49 47 45 44 45 46 44 45 43 43 38 38 33 34 35 32 33 33 33 34 33
61 61 61 61 60 60 59 59 58 57 58 64 56 57 62 41 49 54 52 52 50 50 47 47 50 49 46 43 46 45 47 46 44 44 40 40 40 36 34 32 33 31 34 34 35 37 34
61 61 60 61 60 60 59 59 58 56 58 66 61 64 58 44 49 49 48 50 48 47 47 45 48 49 44 50 50 50 47 45 45 42 43 39 35 33 35 32 27 34 39 37 34 36 37
61 60 60 60 60 59 58 58 58 57 55 62 58 63 54 40 49 47 48 45 47 47 44 43 43 46 51 47 41 38 40 40 39 38 40 42 38 28 32 34 33 32 35 34 31 32 37
61 61 60 60 60 59 57 57 58 56 54 57 52 56 58 43 45 50 48 50 48 46 44 41 46 51 48 44 39 35 40 37 38 36 38 38 38 35 30 28 28 35 38 38 37 30 39
61 61 60 60 59 58 58 57 57 55 54 57 51 51 57 41 45 47 48 48 49 46 44 44 44 44 45 40 38 41 41 37 37 37 35 34 31 31 33 29 35 39 39 38 28 31 40
60 60 60 59 58 58 58 57 56 55 54 56 48 52 54 40 42 44 44 47 46 49 45 44 43 41 39 35 40 41 40 39 37 38 36 35 32 32 27 26 28 41 38 31 38 42 41
60 60 59 59 58 58 57 57 56 55 54 56 51 53 54 46 42 47 45 45 44 45 46 43 45 45 48 42 41 40 37 36 37 41 36 35 38 36 35 39 41 42 41 43 42 40 40

GFSGBSN_sfc_temp_237.txt.gz
Temp
67 68 66 66 66 66 66 66 65 65 65 66 66 66 66 66 67 68 68 69 70 70 70 69 70 71 83 84 79 91 82 87 95 93 88 87 85 83 76 78 78 70 69 69 69 67 65
68 68 66 66 66 66 66 66 65 64 64 65 66 66 66 66 66 67 68 69 70 70 69 69 71 69 90 75 89 92 91 91 89 91 86 88 85 87 79 75 75 74 71 69 69 66 66
68 67 66 66 66 66 66 65 65 64 64 65 65 66 66 65 66 67 68 68 69 68 69 71 72 90 84 76 91 92 90 89 89 88 83 86 88 84 82 73 78 74 66 68 68 69 62
67 67 66 66 66 66 65 65 64 64 64 65 65 65 65 65 65 67 68 69 68 69 71 71 70 93 77 88 92 88 89 90 91 91 86 86 88 82 78 79 75 71 72 66 64 67 66
67 67 66 66 65 65 65 64 64 63 63 64 64 64 64 65 65 67 68 70 71 71 74 76 88 91 76 85 83 87 87 80 86 88 88 88 86 79 79 74 71 73 64 66 62 64 64
67 66 65 65 65 65 65 65 64 63 63 64 64 63 64 64 65 66 67 71 71 76 85 90 91 84 81 75 82 85 86 83 81 83 82 82 81 74 70 68 57 58 60 63 62 63 62
67 66 65 65 64 65 65 64 64 63 63 63 63 63 63 64 64 65 77 89 85 84 82 74 75 76 76 82 85 81 83 83 85 82 74 76 68 58 61 63 63 63 62 62 63 60 57
67 66 65 65 64 64 64 64 63 63 63 63 63 63 64 65 64 64 83 84 76 84 71 79 79 78 79 81 75 77 82 78 79 71 74 71 58 62 64 64 64 64 61 58 61 63 58
66 65 65 65 64 64 64 63 63 62 62 62 63 63 65 66 65 79 84 77 82 83 79 73 76 74 73 77 68 69 73 75 72 68 66 60 59 64 64 60 58 61 55 53 52 57 57
66 65 65 64 64 64 63 63 62 62 62 62 63 63 65 66 75 86 81 80 82 82 74 68 72 74 77 74 66 74 74 69 70 63 65 60 64 63 61 57 56 57 58 54 52 52 50
65 64 64 64 63 63 62 62 62 62 62 62 63 63 63 66 85 84 78 82 83 81 61 69 70 80 78 69 67 70 76 75 64 63 64 52 56 55 55 53 56 54 57 56 54 52 52
65 64 64 63 63 63 62 62 62 62 62 61 62 63 65 79 86 76 81 80 80 69 56 64 70 68 71 70 68 71 71 73 68 65 62 58 63 57 55 60 57 59 59 56 53 53 46
65 64 64 63 63 62 62 62 62 62 63 62 61 63 73 80 79 79 80 81 71 64 66 62 62 66 66 63 65 63 63 58 56 56 58 58 54 57 59 57 59 56 53 48 46 46 44
65 63 63 63 62 62 62 62 61 62 63 61 62 65 69 76 81 79 82 78 63 61 62 64 63 65 62 61 61 62 62 58 58 56 58 54 52 51 56 51 46 51 50 42 30 36 39
64 63 63 62 62 62 61 62 61 62 62 62 60 84 82 79 78 80 80 71 62 64 62 62 64 64 62 62 62 62 55 53 52 54 51 51 48 53 52 55 54 50 43 47 40 46 40
64 62 62 62 62 61 61 62 62 62 62 61 83 83 77 80 81 81 78 57 60 61 61 62 61 61 61 59 61 62 57 51 50 53 56 53 48 51 51 55 55 50 52 41 44 28 28
64 62 62 62 62 61 61 61 61 61 61 61 80 79 78 81 81 82 70 60 59 60 61 61 61 60 59 57 59 57 52 49 52 53 55 54 51 48 52 44 43 47 43 45 42 39 29
63 62 62 62 61 61 61 61 61 60 60 65 79 73 79 81 75 73 66 62 56 59 62 60 62 60 58 57 56 54 51 50 52 52 49 52 50 46 42 46 49 46 42 42 32 30 35
64 62 62 62 61 61 60 61 60 60 58 80 78 75 81 80 64 59 59 56 58 59 57 59 57 59 59 55 52 53 51 50 52 50 48 51 50 45 39 41 47 41 40 40 38 35 31
63 62 62 62 61 60 60 60 60 60 59 73 75 66 74 75 70 68 62 59 54 57 56 59 57 59 58 55 56 49 49 48 50 51 47 50 49 45 40 40 40 37 36 37 37 31 29
63 62 62 62 61 60 60 60 60 60 59 72 70 61 60 59 64 69 65 61 56 53 58 59 56 58 57 47 53 50 50 48 49 48 50 50 44 46 41 40 40 39 37 37 31 36 27
62 61 62 62 61 60 60 60 60 59 57 74 64 59 60 51 61 59 53 58 58 52 56 56 57 54 57 53 52 50 51 51 49 50 48 49 44 44 40 40 40 36 38 38 39 38 37
61 61 61 61 61 60 60 60 59 58 57 75 68 68 70 46 60 62 60 60 58 57 53 59 58 57 50 49 53 54 54 52 50 49 45 45 45 42 41 38 38 35 40 38 39 41 37
61 61 61 61 61 60 60 60 59 57 56 76 73 73 65 50 59 58 58 59 57 55 53 52 57 56 50 58 58 56 54 52 50 47 48 44 41 39 38 39 30 37 43 41 37 40 40
61 61 60 61 60 60 60 59 59 57 56 73 69 72 63 48 60 56 56 53 54 54 51 49 49 55 57 53 46 43 45 45 43 44 45 48 44 33 34 39 42 36 39 37 34 35 40
62 61 61 60 60 60 59 58 58 57 56 68 62 65 68 49 52 60 56 58 55 52 50 45 53 56 53 49 43 38 46 44 43 40 44 43 44 38 36 30 32 38 41 43 40 31 42
61 61 61 61 60 59 58 57 58 56 57 66 59 59 64 46 52 58 55 54 61 58 51 49 47 47 50 44 44 47 48 44 42 41 41 40 36 34 40 33 41 43 43 42 31 34 43
61 60 60 60 59 59 58 57 56 56 58 65 56 60 61 46 48 51 50 54 54 57 50 53 47 45 44 37 46 49 48 46 43 44 42 40 35 36 34 30 32 45 42 34 41 45 44
60 60 60 59 59 58 58 57 56 57 56 62 56 59 60 51 47 52 51 51 49 50 53 53 52 51 52 49 50 50 45 45 42 44 42 40 43 40 39 42 45 47 44 47 45 43 44

GFSGBSN_sfc_temp_240.txt.gz
Temp
68 68 67 67 67 67 66 66 65 65 65 66 66 66 66 67 67 68 69 69 70 70 70 69 69 69 81 80 75 90 83 87 93 92 87 85 82 78 70 71 69 63 64 65 64 62 60
68 67 67 66 66 66 66 66 65 65 65 65 66 66 66 66 67 68 69 69 70 70 69 69 70 68 82 69 89 91 89 90 88 88 84 84 80 82 74 72 69 69 67 65 65 63 62
68 68 67 66 66 66 66 65 65 64 64 65 66 66 66 66 66 67 69 69 69 69 69 70 70 87 79 74 90 90 89 87 88 85 80 83 85 80 76 68 74 69 61 63 64 62 58
69 68 67 66 66 66 65 65 64 64 64 65 65 65 65 65 66 67 68 69 69 70 70 71 70 86 74 88 90 88 87 88 89 89 84 83 84 78 75 75 72 66 65 53 60 63 61
68 68 66 66 66 65 65 65 64 63 63 64 64 64 65 65 65 66 68 69 69 70 71 73 86 87 74 84 82 86 85 80 85 86 83 89 82 72 72 65 61 63 53 57 55 62 60
68 67 66 65 65 65 65 65 64 63 63 64 64 63 64 65 65 66 66 68 71 78 79 90 89 78 79 74 81 83 84 83 81 81 80 78 73 64 62 58 46 51 52 57 54 56 57
68 67 66 65 65 65 65 64 64 63 63 63 63 63 63 65 65 65 75 81 80 79 80 72 73 74 75 80 85 78 79 82 83 78 66 68 57 51 56 58 60 59 57 55 55 58 53
67 67 66 65 64 64 64 64 63 63 63 63 63 63 64 65 65 64 74 81 75 80 69 79 79 77 79 80 73 73 79 76 72 62 69 61 51 59 65 61 57 60 54 50 55 59 53
67 67 65 65 64 64 64 63 63 63 63 63 63 63 64 66 64 75 80 76 82 83 73 73 77 73 74 77 67 67 73 72 68 63 60 54 58 66 63 56 52 56 49 47 47 54 53
66 66 65 65 64 64 63 63 62 62 62 62 62 63 65 66 73 84 78 82 83 81 67 67 71 73 78 75 65 75 76 69 68 60 60 57 60 60 57 53 52 49 54 52 51 46 38
66 65 65 64 64 63 63 62 62 62 62 62 62 63 64 66 83 80 78 82 81 77 54 69 71 82 79 68 69 69 76 72 60 59 61 49 53 51 51 51 55 51 54 53 53 47 43
66 65 64 64 63 63 62 62 62 62 62 62 62 63 65 78 83 77 81 80 76 63 51 63 71 69 71 69 68 71 69 71 68 61 59 55 60 55 53 58 57 57 53 52 49 44 33
65 65 64 63 63 62 62 62 62 62 63 63 62 62 74 81 75 79 79 75 63 57 67 62 62 68 66 63 64 65 60 54 50 49 52 52 51 56 56 52 55 52 46 34 34 32 31
65 64 63 63 63 62 62 62 62 62 63 63 61 59 70 78 80 78 78 70 58 63 62 66 64 66 60 61 61 61 60 51 53 51 49 47 45 48 53 48 43 47 42 30 24 25 28
64 64 63 63 63 62 62 62 61 62 62 61 58 80 80 78 79 76 73 62 55 61 64 64 65 63 60 63 61 60 50 49 50 50 44 43 43 53 52 53 50 45 35 41 32 36 28
63 63 62 63 63 62 61 62 62 61 62 60 72 79 75 81 80 74 69 55 58 62 64 64 60 61 57 57 59 58 52 51 49 53 53 49 40 50 51 54 51 45 48 33 33 17 18
63 63 62 62 62 61 61 61 62 61 61 60 71 73 77 82 80 73 62 58 58 62 63 61 60 60 58 56 57 54 50 49 51 51 53 49 46 44 49 41 39 40 37 38 35 30 17
63 63 62 62 62 61 61 61 61 60 59 62 72 67 77 80 69 69 60 62 57 61 64 62 62 59 57 57 54 51 48 48 51 51 48 48 42 38 38 45 47 43 37 36 21 20 23
63 63 62 62 62 61 61 61 61 60 59 69 70 69 78 77 57 54 59 56 60 60 58 61 57 59 60 54 48 52 48 50 51 49 43 46 42 33 32 36 43 38 38 38 33 27 20
63 63 63 62 61 61 60 60 60 60 59 66 69 61 69 72 68 63 59 57 52 58 57 61 58 60 57 54 55 47 47 49 49 50 48 46 43 38 28 32 33 30 32 34 31 17 17
63 62 62 62 61 60 61 60 60 60 59 65 65 58 58 54 62 65 63 60 54 52 58 60 56 58 56 43 51 48 49 46 49 49 48 44 38 41 39 40 39 36 36 34 20 28 17
62 62 62 62 61 61 60 60 60 60 58 67 62 56 56 50 59 55 51 56 56 53 55 56 55 57 56 49 49 47 50 48 45 48 44 45 36 39 37 40 38 35 37 36 36 35 32
62 62 61 61 61 60 60 60 59 58 57 69 66 66 63 48 58 57 55 59 57 54 53 60 58 52 47 49 52 51 50 48 47 44 42 40 37 33 29 36 35 28 36 35 34 36 33
61 61 60 61 61 60 60 60 59 57 56 67 68 68 59 46 54 56 59 60 56 57 51 53 55 51 50 57 56 53 50 49 48 44 45 40 34 31 26 31 22 31 41 38 34 37 36
61 61 60 61 61 60 60 60 60 58 56 66 65 64 57 47 57 57 56 52 53 52 48 47 50 53 56 51 39 37 38 40 41 42 42 42 36 26 23 27 31 34 37 34 28 29 38
61 61 60 60 60 60 59 59 59 58 56 64 59 59 62 46 48 61 54 55 48 46 45 46 53 53 51 41 35 34 34 37 35 35 41 41 38 29 25 20 25 32 39 41 36 23 38
61 61 61 60 60 59 59 59 58 57 57 62 56 58 58 43 51 53 52 51 58 53 43 46 47 44 46 38 37 37 35 40 35 33 31 29 27 24 27 23 30 38 40 39 21 23 38
61 61 60 60 60 59 59 58 58 57 58 60 55 60 56 43 45 51 49 51 53 51 42 48 42 42 37 35 38 38 38 37 35 38 33 31 26 26 25 20 24 40 37 26 32 37 39
60 61 60 60 59 59 58 57 57 57 58 60 52 57 56 46 45 51 51 51 49 50 49 48 48 46 44 40 40 40 35 35 36 33 35 29 34 30 31 30 39 40 39 41 40 37 37

GFSGBSN_sfc_temp_246.txt.gz
Temp
68 67 67 66 66 66 66 65 65 64 65 66 66 66 66 66 67 68 68 69 69 69 68 68 68 68 72 66 65 80 79 79 81 80 75 72 69 63 57 57 58 51 52 54 54 54 52
68 67 66 66 66 66 66 65 64 64 64 65 66 66 66 66 66 67 68 68 68 68 67 68 69 68 71 59 78 78 77 79 77 76 73 72 68 67 61 58 55 55 54 52 54 53 53
68 67 66 66 66 66 66 65 64 64 64 64 65 65 65 65 65 66 67 67 67 67 67 68 69 78 68 65 76 75 77 74 75 75 72 73 71 69 63 57 60 56 48 50 50 51 49
68 67 67 66 66 66 65 65 64 63 64 65 65 65 65 64 65 65 66 67 67 67 68 68 68 71 61 77 74 76 75 76 77 77 75 73 72 67 62 62 58 52 48 41 49 51 50
68 67 66 66 66 65 65 64 64 63 63 64 64 64 64 64 64 65 66 66 68 69 69 70 73 68 60 78 72 73 71 71 72 75 73 78 68 58 57 51 46 47 40 42 46 52 48
67 67 66 65 65 65 65 65 64 63 63 63 63 63 63 63 63 64 65 68 72 73 76 80 77 65 69 66 70 72 70 71 70 69 67 62 54 49 46 46 38 40 39 43 42 45 44
66 66 65 65 64 64 65 64 63 63 62 62 63 63 62 63 63 63 68 71 68 66 67 62 61 63 67 71 71 70 70 69 68 61 53 54 49 40 43 45 48 45 42 42 43 48 41
66 66 65 64 64 64 64 64 63 63 62 62 63 62 62 62 63 62 67 64 62 68 60 67 67 66 69 67 63 69 71 63 57 51 52 48 42 50 53 51 48 47 42 39 44 46 40
65 65 65 64 64 64 64 63 63 62 62 62 62 62 62 62 61 67 65 65 68 68 59 64 66 65 65 68 60 62 65 60 54 50 48 43 47 54 53 47 45 43 41 37 40 42 41
65 65 65 64 64 64 63 62 62 62 62 62 62 62 62 62 67 66 64 68 68 67 51 57 63 67 68 65 59 66 65 59 55 48 48 45 51 50 48 46 44 38 46 44 42 37 29
65 65 64 64 63 63 62 62 62 61 61 61 61 61 61 62 64 65 67 67 65 66 41 61 63 72 67 61 59 63 64 61 49 48 49 41 45 44 43 45 46 43 47 42 42 37 33
65 65 64 63 63 62 62 61 61 61 61 61 61 60 61 66 64 63 66 64 66 53 40 55 62 60 59 60 60 60 55 58 55 51 49 45 51 47 44 49 48 49 42 42 38 34 27
64 64 64 63 63 62 62 61 61 61 62 61 60 60 64 69 64 64 64 63 52 44 56 52 54 58 54 53 54 53 47 44 39 39 37 42 43 47 48 43 46 42 33 27 30 26 26
64 64 63 62 62 62 62 61 61 61 61 60 59 60 64 68 63 64 62 58 44 51 49 56 55 55 51 52 50 48 44 39 42 40 35 35 37 42 48 41 36 37 31 24 24 22 23
64 63 63 62 62 62 62 61 61 61 60 59 59 60 61 64 66 62 59 47 46 48 54 55 54 49 47 52 49 45 38 38 40 41 36 34 35 45 47 45 40 37 29 33 27 23 19
63 63 62 62 62 62 61 61 61 61 60 58 57 58 60 66 63 60 52 46 46 52 54 54 47 48 43 47 46 43 38 41 41 44 40 36 33 42 45 46 43 38 38 27 24 12 15
63 63 62 62 61 61 61 61 61 61 59 58 57 57 63 64 63 55 47 43 49 55 55 51 49 48 46 45 44 39 38 41 43 43 42 37 36 35 40 34 30 32 29 28 26 22 11
63 63 62 62 61 61 61 61 60 60 57 58 54 53 63 63 53 42 44 49 55 52 54 52 51 50 47 45 42 39 40 39 44 42 38 38 34 27 29 37 39 34 29 25 16 16 16
64 63 63 62 61 60 60 60 60 58 57 55 52 53 61 62 45 39 44 49 50 51 49 51 49 50 49 44 40 40 39 44 44 41 37 38 33 24 26 31 35 31 30 30 24 18 12
63 63 62 62 61 60 60 60 60 59 58 54 52 49 54 51 47 46 45 45 45 50 50 51 50 51 47 43 44 39 39 43 44 43 50 43 33 31 25 29 30 26 30 30 24 9 9
60 62 62 62 61 60 60 60 60 59 58 54 49 46 46 44 46 46 46 46 45 45 49 50 47 48 47 37 40 39 39 39 43 48 41 38 31 31 31 33 33 32 32 29 16 23 13
59 62 62 62 61 60 60 60 60 58 57 53 49 45 43 36 47 47 40 44 46 44 46 46 46 44 45 42 42 40 41 37 37 39 36 36 30 31 28 33 32 31 33 31 31 29 27
59 59 61 61 61 60 60 59 58 57 56 51 48 49 50 40 43 42 43 47 48 47 44 46 46 42 41 41 41 38 39 38 39 37 35 33 30 25 24 30 30 26 30 30 29 28 27
58 59 60 61 61 60 60 60 59 57 56 52 50 50 45 36 42 46 49 46 45 44 45 43 45 43 43 45 43 43 40 39 39 36 37 32 27 22 19 25 21 28 33 33 30 30 29
57 58 59 61 60 60 59 60 60 58 56 53 49 51 44 33 43 45 44 41 42 40 40 40 41 41 45 42 31 33 33 34 35 35 35 34 27 17 20 21 28 29 32 30 28 27 31
57 57 58 59 60 59 59 59 59 58 56 52 47 48 47 39 38 47 43 42 38 33 35 40 43 43 43 31 30 26 29 32 31 31 35 33 28 23 14 17 23 30 33 36 32 22 31
56 56 57 58 60 59 59 59 59 58 56 53 48 48 47 35 39 41 40 41 41 36 32 37 40 39 39 29 26 26 29 34 32 30 29 21 17 18 18 14 26 33 35 36 21 23 31
55 56 56 58 59 59 59 59 59 58 57 52 46 48 47 34 36 41 42 43 40 37 31 37 36 34 28 30 28 29 30 32 29 31 30 29 21 17 15 13 25 35 32 27 29 31 32
55 55 56 56 56 59 59 59 59 58 57 53 46 49 48 40 38 43 43 43 42 43 38 36 38 35 37 32 28 29 29 27 29 30 29 26 30 26 28 29 34 34 33 35 34 32 31